CW5586 Weather Reports


time (UTC)temp
C
wind
direction
speed
KPH
gust
KPH
rain 1hr
cm
rain 24hr
cm
rain mn
cm
humidity
%
barometer
mb
20260505201104 5 0 0.0 3.2 0.00 0.36 0.00 55 1012.2
20260505200114 5 263 1.6 4.8 0.00 0.36 0.00 52 1012.0
20260505194103 6 313 1.6 3.2 0.00 0.36 0.00 53 1012.0
20260505193603 6 308 3.2 3.2 0.00 0.36 0.00 51 1012.0
20260505191104 7 274 1.6 3.2 0.00 0.36 0.00 46 1011.7
20260505190605 7 273 1.6 3.2 0.00 0.36 0.00 43 1011.8
20260505184104 8 301 1.6 4.8 0.00 0.36 0.00 37 1011.6
20260505183104 9 296 3.2 11.3 0.00 0.36 0.00 37 1011.7
20260505174103 10 279 3.2 9.7 0.00 0.36 0.00 31 1011.5
20260505173604 10 263 9.7 8.0 0.00 0.36 0.00 33 1011.5
20260505173103 10 293 4.8 4.8 0.00 0.36 0.00 33 1011.4
20260505171103 10 257 12.9 12.9 0.00 0.36 0.00 32 1011.4
20260505161103 11 295 3.2 12.9 0.00 0.36 0.00 27 1011.3
20260505160605 11 336 4.8 16.1 0.00 0.36 0.00 29 1011.4
20260505151603 11 263 16.1 16.1 0.00 0.36 0.00 27 1011.4
20260505151103 11 282 12.9 16.1 0.00 0.36 0.00 28 1011.4
20260505150604 12 273 12.9 16.1 0.00 0.36 0.00 27 1011.4
20260505150114 12 288 1.6 19.3 0.00 0.36 0.00 28 1011.3
20260505140604 11 258 1.6 19.3 0.00 0.36 0.00 28 1011.2
20260505140114 11 262 4.8 19.3 0.00 0.36 0.00 29 1011.3
20260505130114 11 49 3.2 19.3 0.00 0.36 0.00 31 1011.2
20260505124603 11 300 3.2 14.5 0.00 0.36 0.00 34 1011.1
20260505124103 11 299 3.2 16.1 0.00 0.36 0.00 31 1011.1
20260505123603 11 277 11.3 25.7 0.00 0.36 0.00 31 1011.1
20260505123104 11 323 3.2 25.7 0.00 0.36 0.00 30 1011.2
20260505121103 11 274 4.8 14.5 0.00 0.36 0.00 32 1011.1
20260505111104 11 294 8.0 16.1 0.00 0.36 0.00 32 1011.0
20260505110603 11 320 20.9 19.3 0.00 0.36 0.00 32 1011.0
20260505101604 11 242 8.0 16.1 0.00 0.36 0.00 38 1010.9
20260505101104 11 246 3.2 22.5 0.00 0.36 0.00 34 1010.9
20260505100603 10 297 12.9 22.5 0.00 0.36 0.00 35 1011.0
20260505094603 10 273 3.2 22.5 0.00 0.36 0.00 36 1010.9
20260505093604 10 331 3.2 27.4 0.00 0.36 0.00 39 1010.8
20260505084604 10 205 9.7 16.1 0.00 0.36 0.00 42 1010.6
20260505083604 10 291 12.9 14.5 0.00 0.36 0.00 43 1010.7
20260505081104 8 182 1.6 16.1 0.00 0.36 0.00 44 1010.7
20260505074603 8 305 9.7 16.1 0.00 0.36 0.00 43 1010.6
20260505073105 8 0 4.8 16.1 0.00 0.36 0.00 46 1010.5
20260505071603 7 343 3.2 12.9 0.00 0.36 0.00 47 1010.5
20260505071104 7 334 4.8 14.5 0.00 0.36 0.00 48 1010.5
20260505070603 7 5 8.0 14.5 0.00 0.36 0.00 48 1010.6
20260505064604 7 292 3.2 14.5 0.00 0.36 0.00 51 1010.4
20260505063104 7 321 4.8 20.9 0.00 0.36 0.00 50 1010.3
20260505061104 7 74 1.6 19.3 0.00 0.36 0.00 53 1010.2
20260505060114 7 246 3.2 16.1 0.00 0.36 0.00 54 1010.2
20260505054604 7 12 4.8 14.5 0.00 0.36 0.00 54 1010.2
20260505053603 6 5 11.3 19.3 0.00 0.36 0.00 53 1010.1
20260505053104 6 350 14.5 19.3 0.00 0.36 0.00 54 1010.1
20260505051103 6 352 3.2 12.9 0.00 0.36 0.00 65 1009.9
20260505050114 6 309 4.8 9.7 0.00 0.36 0.00 68 1009.8
20260505041103 6 265 1.6 4.8 0.00 0.36 0.00 76 1009.4
20260505040606 6 253 1.6 3.2 0.00 0.36 0.00 76 1009.4
20260505034604 6 0 0.0 3.2 0.00 0.36 0.00 79 1009.2
20260505030604 7 291 1.6 4.8 0.00 0.36 0.00 80 1009.0
20260505030114 7 301 4.8 4.8 0.00 0.36 0.00 81 1009.0
20260505024604 7 292 3.2 9.7 0.00 0.36 0.00 82 1008.9
20260505023604 7 273 3.2 8.0 0.00 0.38 0.00 82 1008.9
20260505023104 7 300 1.6 12.9 0.00 0.38 0.00 82 1009.0
20260505021604 7 275 4.8 12.9 0.00 0.41 0.00 82 1008.9
20260505021104 7 295 8.0 14.5 0.00 0.41 0.00 82 1008.8
20260505014604 7 229 12.9 16.1 0.00 0.41 0.00 82 1008.9
20260505013603 7 286 12.9 19.3 0.00 0.43 0.00 82 1008.9
20260505011604 8 261 12.9 19.3 0.00 0.43 0.00 82 1008.9
20260505010604 8 283 14.5 20.9 0.00 0.46 0.00 83 1008.8
20260505001104 8 202 19.3 25.7 0.00 0.56 0.00 83 1009.1
20260505000604 8 179 3.2 22.5 0.00 0.58 0.00 83 1009.1
20260505000115 8 261 11.3 22.5 0.00 0.58 0.00 84 1009.1
20260504234604 8 290 4.8 20.9 0.00 0.61 0.00 83 1009.0
20260504234103 8 243 9.7 20.9 0.00 0.61 0.00 83 1008.8
20260504231104 8 265 3.2 27.4 0.00 0.61 0.00 82 1009.0
20260504230115 8 263 8.0 20.9 0.36 0.66 0.00 83 1009.0
20260504224604 8 268 3.2 19.3 0.36 0.71 0.00 82 1009.1
20260504221604 8 268 9.7 14.5 0.36 0.71 0.00 82 1009.2
20260504221107 8 243 9.7 16.1 0.36 0.71 0.00 82 1009.3
20260504214604 8 242 9.7 14.5 0.00 0.36 0.36 82 1009.4
20260504211603 8 201 8.0 20.9 0.00 0.36 0.36 81 1009.3